Location: Capelle
(50.3413°N, 1.9974°E)
Time: 09:37:34
(UTC+00:00)

Meteor 2-13 Rocket - Pass Details

Date: 12 January 2026
Orbit: 935 x 958 km, 82.5° (Epoch: 18 February)

Event Time Altitude Azimuth Distance (km) Brightness Sun altitude
Rises 18:21:04 0° 181° (S) 3,624 7.6 -19.6°
Reaches altitude 10° 18:23:33 10° 180° (S) 2,683 6.9 -20.0°
Maximum altitude 18:29:40 74° 97° (E) 1,000 4.3 -21.0°
Drops below altitude 10° 18:35:50 10° 13° (NNE) 2,701 6.6 -22.0°
Sets 18:38:21 0° 12° (NNE) 3,649 7.3 -22.4°
